Location: ???????
(55.3754°N, 39.3545°E)
Time: 05:45:23
(UTC+00:00)

NOSS 2-1 (C) - Pass Details

Date: 14 April 2026
Orbit: 374 x 1679 km, 63.3° (Epoch: 10 May)

Event Time Altitude Azimuth Distance (km) Brightness Sun altitude
Rises 19:01:57 0° 305° (NW) 2,300 7.9 -18.7°
Reaches altitude 10° 19:03:53 10° 296° (WNW) 1,503 6.5 -18.8°
Maximum altitude 19:06:55 37° 227° (SW) 746 3.9 -19.1°
Enters shadow 19:07:21 36° 209° (SSW) 784 3.8 -19.1°
